Regional Weather Roundup
Issued by NWS State College, PA

Home | Current Version | Previous Version | Text Only | Print | Product List | Glossary On
Versions: 1 2 3 4 5 6 7 8 9 10 11 12 13 14 15 16 17 18 19 20 21 22 23 24 25 26 27 28 29 30 31 32 33 34 35 36 37 38 39 40 41 42 43 44 45 46 47 48 49 50
000
ASUS41 KCTP 282210
RWRCTP

REGIONAL WEATHER ROUNDUP
NATIONAL WEATHER SERVICE STATE COLLEGE PA
600 PM EDT FRI AUG 28 2015

Note: "fair" indicates few or no clouds below 12,000 feet with no
significant weather and/or obstructions to visibility.

* = STATION THAT DOES NOT REPORT PRECIPITATION /E.G. RAIN...SNOW...ETC/
    THUNDER OR FOG.

PAZ002>004-007>009-013>016-020>023-029>032-282300-
WESTERN PENNSYLVANIA

CITY           SKY/WX    TMP DP  RH WIND       PRES   REMARKS
ERIE           SUNNY     72  56  57 N6        30.18R
MEADVILLE      SUNNY     72  53  51 W3        30.18S
FRANKLIN*      PTSUNNY   73  54  49 W5        30.19F
NEW CASTLE     FAIR      79  56  45 CALM      30.16F
BEAVER COUNTY  SUNNY     77  54  44 S3        30.16F
BUTLER*        SUNNY     77  52  41 W3        30.18S
PITTSBURGH INT MOSUNNY   78  50  37 CALM      30.15S
PITTSBURGH     SUNNY     77  46  33 CALM      30.15S
INDIANA*       MOSUNNY   77  54  44 NE3       30.20R
LATROBE        SUNNY     79  50  36 CALM      30.16S
WASHINGTON CO* SUNNY     77  50  38 S3        30.16S
$$

PAZ004>006-010>012-017>019-024>028-033>037-041-042-045-046-049>053-282300-
CENTRAL PENNSYLVANIA

CITY           SKY/WX    TMP DP  RH WIND       PRES   REMARKS
BRADFORD       CLOUDY    71  52  50 NW6       30.20R
DUBOIS         MOSUNNY   72  53  51 SW3       30.18S
CLEARFIELD     SUNNY     73  51  46 CALM      30.18S
JOHNSTOWN      MOSUNNY   74  50  42 E3        30.19S
ALTOONA        SUNNY     77  52  41 VRB5      30.17F
STATE COLLEGE  MOSUNNY   75  55  50 CALM      30.17F
WILLIAMSPORT   PTSUNNY   76  54  46 S3        30.14S
SELINSGROVE    MOSUNNY   77  57  50 SE3       30.15F
FT INDIANTOWN  SUNNY     79  55  43 VRB3      30.15S
CAPITAL CITY   MOSUNNY   78  54  43 S5        30.14F
HARRISBURG     MOSUNNY   80  55  42 CALM      30.14S
YORK           SUNNY     78  57  48 CALM      30.15F
$$

PAZ038>040-043-044-047-048-054-055-060>062-067>071-282300-
EASTERN PENNSYLVANIA

CITY           SKY/WX    TMP DP  RH WIND       PRES   REMARKS
SCRANTON       MOSUNNY   76  52  43 NW5       30.17S
MOUNT POCONO   MOSUNNY   70  51  51 W5        30.20S
ALLENTOWN      SUNNY     77  54  44 W6        30.15S
QUAKERTOWN*    MOCLDY    77  55  47 CALM      30.16S
READING        SUNNY     79  54  41 W7        30.14S
LANCASTER      SUNNY     79  53  40 VRB3      30.15S
COATESVILLE    MOCLDY    77  55  47 NW6       30.17S
POTTSTOWN      MOSUNNY   76  57  51 CALM      30.17R
BLUE BELL      SUNNY     79  57  47 CALM      30.14S
DOYLESTOWN     SUNNY     77  53  43 W3        30.14F
WILLOW GROVE   NOT AVBL
NORTH PHILA    MOSUNNY   81  51  35 NW5       30.15S
PHILADELPHIA   MOSUNNY   83  52  34 NW8       30.14S
$$


USA.gov is the U.S. government's official web portal to all federal, state and local government web resources and services.